GEFSSE_500_meanwind_180.txt.gz
Wind_Speed
17 18 18 19 19 19 20 20 21 21 21 21 21 20 20 20 19 19 19 19 18 17 17 16 16 16 16 15 15 15 14 13 12 12 12 12 12 12 12 12 11 11 11
19 19 20 20 20 21 21 21 21 22 22 22 22 22 22 22 21 21 21 20 20 20 19 19 18 18 18 17 17 16 16 16 14 14 13 13 13 13 14 13 13 13 13
20 21 21 22 22 22 22 22 23 23 23 23 24 24 24 24 23 23 23 22 22 21 21 21 20 20 19 18 18 18 18 17 17 16 15 15 15 15 15 15 15 15 15
21 22 23 23 24 24 25 25 25 25 25 25 25 25 26 26 26 25 25 24 23 23 23 23 22 22 22 21 20 19 19 19 18 18 17 17 17 17 17 17 17 17 17
22 23 24 25 25 26 26 27 27 27 27 27 27 27 27 27 27 27 27 26 25 25 24 24 24 23 23 23 22 22 21 21 20 20 19 19 19 18 18 18 18 18 18
25 25 26 26 27 28 28 28 29 29 29 29 29 29 29 29 29 29 29 28 28 27 27 26 26 25 25 25 24 24 23 23 22 21 21 21 21 21 20 20 19 19 19
27 27 28 28 29 30 30 31 31 31 31 31 31 31 31 32 31 31 31 30 30 29 29 29 28 27 27 26 25 25 25 24 23 23 22 22 22 22 22 22 21 21 21
29 29 30 30 31 31 32 33 33 34 34 34 34 34 34 34 34 33 33 33 32 32 31 31 30 29 29 28 27 27 26 26 24 24 24 23 23 24 23 23 23 23 23
31 31 32 32 33 33 34 34 35 36 36 37 36 36 36 36 36 36 36 35 35 34 34 33 32 32 30 30 29 29 28 27 27 26 25 25 24 25 24 25 25 25 25
33 34 34 34 35 36 36 37 37 38 39 39 40 39 39 39 39 39 38 38 37 36 36 35 34 34 33 32 31 31 30 29 28 27 27 26 26 26 26 26 27 26 26
34 35 36 37 37 38 38 39 39 40 41 42 42 42 42 42 41 41 41 40 40 39 38 37 37 36 35 34 33 33 32 31 30 29 28 28 28 28 28 28 28 28 28
35 36 37 38 39 39 40 40 40 41 42 43 44 44 44 44 44 43 43 42 42 41 41 40 39 38 37 36 35 34 34 33 32 31 30 30 29 29 29 29 29 29 29
36 37 38 39 39 40 40 40 41 42 43 43 44 44 45 45 45 45 44 44 44 43 42 42 41 40 39 38 38 37 36 34 34 33 33 32 32 31 31 31 30 30 30
36 37 38 39 39 40 41 41 42 42 43 43 43 44 46 46 47 46 46 45 45 45 44 43 43 42 41 40 39 39 38 36 36 35 35 34 34 33 33 32 33 32 32
36 38 39 39 40 41 42 42 43 43 43 43 44 45 46 47 47 47 48 47 47 46 46 45 45 45 44 43 42 41 40 39 38 38 37 37 35 35 34 34 34 34 33
36 37 38 39 40 41 43 43 43 44 44 45 45 46 47 48 48 48 49 49 49 48 47 47 47 47 46 44 43 43 42 42 41 40 39 39 38 37 36 36 35 35 35
36 37 37 38 40 41 42 43 44 44 45 46 47 47 48 49 48 48 49 50 50 49 49 49 48 48 46 46 45 45 44 44 43 43 42 42 41 40 39 38 38 37 38
35 35 36 37 38 39 40 41 42 43 44 45 47 48 48 49 49 49 50 51 51 51 51 50 50 50 50 49 48 48 47 46 46 45 45 44 44 43 42 41 41 40 39
34 35 36 37 38 39 39 40 41 41 42 44 45 47 48 49 49 50 50 52 52 53 52 51 51 51 51 50 50 50 49 49 48 48 47 46 46 45 45 44 43 42 41
34 34 36 37 38 38 39 39 40 41 42 43 46 47 48 49 50 50 50 51 52 53 52 52 52 52 53 52 51 51 51 51 50 49 48 48 47 47 47 46 45 44 44
33 34 34 35 36 37 38 39 40 41 42 44 46 47 49 50 50 50 50 51 51 52 52 52 52 52 54 53 53 53 52 52 50 50 50 49 49 49 48 47 47 46 45
32 33 33 34 35 37 38 39 39 40 42 44 44 45 46 47 48 49 50 50 50 51 51 52 52 53 54 54 54 54 54 53 52 51 51 51 51 50 50 49 48 47 47
32 33 33 34 35 37 38 39 40 41 41 42 42 42 43 45 46 47 49 48 49 50 51 52 52 53 53 54 54 54 54 54 53 51 51 52 52 51 50 50 49 48 48
32 32 32 33 34 36 37 38 39 40 40 40 40 40 42 44 45 46 47 47 48 50 50 51 50 51 51 52 53 53 54 54 53 52 51 51 50 50 50 49 49 49 49
30 31 31 32 33 34 35 36 37 38 38 39 39 39 40 42 44 46 46 47 48 49 50 51 50 49 49 50 51 52 53 53 53 53 51 50 49 49 49 49 49 50 50
29 30 30 31 32 32 33 34 35 36 36 37 37 37 38 40 42 44 47 47 48 48 48 48 49 48 48 48 48 50 51 51 51 52 52 50 49 49 48 48 48 48 49

GEFSSE_500_meanwind_186.txt.gz
Wind_Speed
18 18 18 19 19 19 19 18 18 18 17 17 17 17 17 16 16 16 16 16 16 15 15 15 15 14 14 14 14 14 14 13 13 12 13 12 12 12 12 12 12 12 12
20 20 20 20 20 20 20 19 19 19 19 18 18 18 18 18 18 18 18 18 18 17 17 17 16 16 16 16 16 16 15 15 14 14 14 13 14 13 14 14 14 14 14
21 22 22 21 21 21 21 20 20 20 20 20 20 20 20 20 20 20 20 20 20 19 19 18 18 18 18 18 18 17 17 16 16 16 15 15 15 15 15 15 15 15 15
22 22 22 22 22 21 21 21 21 21 22 22 22 22 22 22 22 22 22 22 22 22 21 21 20 20 20 19 19 19 19 18 18 18 17 17 17 17 17 17 17 17 17
22 22 22 23 23 23 23 23 23 23 23 24 24 25 25 25 25 25 24 24 24 24 24 24 23 23 22 22 22 21 21 21 20 20 20 19 19 19 19 20 19 19 19
23 23 23 24 24 24 24 24 25 25 26 26 26 27 27 27 27 27 27 26 26 26 25 26 26 25 25 24 24 24 24 23 23 22 22 22 21 20 20 21 21 21 21
25 25 25 25 26 26 26 26 26 27 27 28 28 28 29 29 29 29 29 29 28 28 28 27 27 27 27 26 26 26 26 26 25 24 23 23 23 23 22 22 23 23 23
26 26 26 26 27 28 28 29 29 29 30 30 30 30 30 31 31 32 31 31 31 30 30 29 29 28 28 28 28 28 28 28 27 27 26 25 25 24 24 24 24 25 25
27 27 28 28 29 29 30 31 31 31 32 32 32 33 33 33 34 34 34 34 33 33 32 32 32 31 31 30 30 30 30 29 29 29 28 27 26 26 26 26 25 26 26
28 29 29 30 30 30 31 32 32 32 33 34 34 35 35 35 36 36 37 36 36 36 35 35 34 34 33 32 32 32 31 30 30 30 30 29 28 28 28 27 27 27 27
30 30 31 31 32 32 32 33 33 34 35 35 36 36 37 37 38 38 38 38 38 38 38 38 37 37 36 35 34 34 33 32 31 31 31 31 30 29 29 29 29 29 28
31 32 32 33 33 34 35 35 36 37 37 38 38 38 39 39 40 40 40 40 39 40 40 40 39 38 38 37 37 36 36 35 34 33 32 32 32 32 31 31 30 30 30
32 32 33 34 35 36 37 37 38 39 39 40 40 41 40 40 41 41 42 42 42 42 41 41 41 41 40 39 39 39 38 37 36 35 35 34 34 34 33 33 32 31 31
33 33 35 36 37 38 39 39 40 40 41 41 41 42 42 41 41 41 42 42 43 43 44 43 43 43 42 41 41 40 40 39 38 37 37 36 36 35 35 34 34 33 33
34 35 36 37 38 39 40 40 41 41 42 42 42 42 42 42 42 42 43 43 44 45 45 45 46 45 44 43 43 42 42 41 40 39 39 39 39 38 37 36 36 36 36
35 36 36 37 37 38 38 39 39 40 40 41 41 41 42 43 43 44 44 45 45 46 46 46 47 47 46 46 45 44 43 43 42 42 42 41 41 41 40 39 39 38 38
34 34 35 35 36 37 37 38 38 39 39 40 40 41 42 43 44 45 45 45 45 46 47 47 47 48 48 47 47 46 46 45 44 44 44 44 44 43 42 41 41 41 40
33 33 34 35 35 36 37 38 38 38 39 40 40 41 43 44 45 45 45 46 47 47 48 48 48 48 48 48 49 48 48 47 47 46 46 46 45 44 43 42 42 43 42
33 33 34 34 35 36 36 37 38 39 39 40 40 41 43 44 45 46 46 47 47 48 49 49 49 49 49 49 50 49 49 49 49 48 48 48 47 46 46 45 45 45 45
33 34 34 35 35 36 36 37 38 39 39 40 41 42 43 44 45 46 46 47 48 49 49 50 50 50 50 50 50 50 50 50 50 50 49 49 49 48 48 47 47 47 47
33 34 35 35 35 36 36 37 37 38 39 40 41 42 43 43 44 45 46 47 48 49 49 50 51 51 51 51 51 50 50 51 50 50 50 50 50 50 49 49 49 49 49
33 34 34 35 35 36 36 36 36 37 39 40 41 42 43 44 44 46 47 48 49 49 49 50 51 50 50 51 51 51 51 51 51 50 51 51 51 51 51 51 50 50 50
33 33 34 35 35 36 36 36 37 38 39 40 41 42 43 43 44 45 47 47 48 48 49 49 49 49 50 50 52 52 52 53 52 51 51 51 51 51 51 51 50 51 50
33 34 34 35 35 35 36 36 37 38 38 39 40 41 41 41 42 43 44 45 46 47 47 47 48 49 50 50 51 52 52 52 53 52 51 51 50 50 50 50 50 51 51
32 33 34 34 34 34 36 36 37 37 38 38 39 40 40 41 41 41 42 42 43 44 45 46 47 47 48 48 49 50 50 50 51 50 49 49 49 48 48 49 50 50 50
31 32 33 33 34 34 35 36 36 37 37 37 38 39 39 39 40 39 38 38 38 40 42 43 44 45 46 47 46 47 47 48 48 47 47 47 47 46 46 47 48 49 48

GEFSSE_500_meanwind_192.txt.gz
Wind_Speed
18 18 17 17 17 17 17 17 17 16 16 15 15 15 15 15 15 15 15 15 15 14 14 14 13 13 13 13 13 12 12 12 13 12 12 12 12 12 12 12 12 11 11
19 19 19 19 19 18 18 18 18 18 18 18 17 17 17 17 17 17 17 17 17 16 16 16 16 15 15 15 15 14 14 14 14 14 14 14 14 14 14 14 13 13 13
21 21 20 20 20 20 20 20 20 20 20 20 19 19 19 19 19 19 19 19 19 19 19 18 18 18 17 17 17 17 16 16 16 16 16 16 16 15 15 15 15 15 15
22 22 22 21 21 21 21 21 21 21 21 21 21 21 21 21 21 21 21 21 21 21 21 20 20 20 19 19 19 19 19 18 19 19 18 18 18 18 18 17 17 17 17
23 23 23 22 22 22 22 22 22 22 22 22 22 23 23 23 23 24 24 24 24 24 23 23 22 22 22 22 22 22 22 21 21 21 21 21 21 20 20 20 19 19 19
24 24 24 23 23 23 22 22 23 23 23 23 24 24 24 25 25 25 26 26 26 26 26 25 25 25 24 25 25 25 24 24 23 23 23 23 23 23 22 22 22 22 21
24 25 25 24 24 24 24 24 24 24 24 24 25 25 26 26 26 27 27 28 28 28 28 27 27 27 26 26 27 26 26 26 26 26 25 25 25 25 24 24 24 23 24
25 25 25 25 25 25 25 25 25 25 25 26 26 27 27 27 28 28 28 29 29 29 30 30 30 29 29 29 29 29 29 28 28 27 27 27 27 26 26 26 25 25 25
26 25 25 25 25 25 26 26 26 26 26 27 27 28 28 28 29 29 30 30 31 31 32 32 32 32 32 32 31 31 31 30 30 30 29 29 29 28 28 28 28 27 27
26 26 27 27 27 27 27 27 27 27 28 28 29 30 30 31 31 31 32 33 33 33 34 34 34 34 34 34 33 33 33 32 32 31 31 30 30 30 30 30 30 29 29
27 27 28 28 28 28 28 28 29 29 30 30 31 31 32 33 33 34 35 35 36 36 36 36 36 36 36 35 35 35 35 34 33 33 32 32 31 31 31 31 31 31 30
28 28 28 28 29 29 29 30 30 31 31 32 33 33 34 35 36 37 37 37 38 38 38 38 38 37 37 37 37 37 36 36 36 35 34 34 33 33 33 33 33 33 32
29 29 29 30 30 30 31 31 32 33 33 34 35 36 37 38 39 39 39 39 39 39 39 39 39 39 39 39 39 39 39 39 38 38 37 36 36 35 35 35 34 34 34
29 29 30 31 32 32 33 33 34 34 35 36 36 37 38 39 40 40 40 40 40 40 40 40 40 40 41 41 41 41 42 41 40 40 39 38 38 38 37 37 37 36 36
30 30 31 32 33 33 34 34 35 35 35 36 36 37 38 38 38 39 40 40 40 41 41 42 42 42 43 43 43 43 43 42 42 42 41 41 41 41 40 40 39 39 39
31 32 32 33 33 33 34 35 35 36 37 37 38 39 39 39 39 39 39 40 40 41 42 42 42 43 44 44 45 45 45 44 44 44 44 43 44 44 43 43 42 42 42
32 32 32 32 33 33 34 35 35 36 37 38 39 39 39 39 38 39 39 40 41 42 42 43 44 44 44 45 46 46 46 46 46 46 46 46 46 46 46 45 45 45 45
31 31 31 32 33 34 34 35 35 36 36 37 37 38 38 39 39 40 40 41 42 42 43 44 45 45 45 46 47 47 48 47 47 47 47 48 48 47 47 47 47 47 47
30 30 31 31 32 33 34 34 35 35 36 36 36 37 38 39 40 40 41 42 43 43 44 44 45 46 47 47 48 48 49 49 49 49 48 49 49 49 49 48 49 48 48
30 30 30 31 31 32 33 34 35 35 36 36 36 37 38 38 39 40 40 41 42 43 44 45 45 47 48 48 48 49 49 49 50 50 49 49 49 51 51 50 50 50 50
30 30 30 30 31 32 33 34 34 35 36 36 36 37 38 38 38 39 40 41 42 43 44 45 46 47 48 49 49 49 48 48 48 48 49 49 50 51 51 52 52 52 52
29 29 30 30 31 32 33 33 34 34 35 35 36 37 38 38 39 39 40 41 42 43 45 45 45 46 47 48 49 49 48 48 47 47 48 49 50 51 52 52 53 53 53
29 29 30 30 30 31 31 32 33 33 34 35 36 37 37 38 38 38 39 40 41 42 42 43 45 46 47 47 47 48 48 47 46 46 46 48 50 51 52 52 52 52 53
29 29 30 30 30 30 30 31 32 33 33 34 35 36 37 37 37 38 38 39 40 41 41 42 43 44 45 45 45 46 46 46 46 46 46 47 48 49 51 50 50 50 51
29 29 30 30 29 30 30 31 32 33 33 34 35 35 36 36 37 37 38 39 40 40 41 41 41 41 42 43 44 44 45 46 46 46 46 46 46 47 48 49 49 49 49
30 30 30 30 30 30 31 32 32 32 33 34 35 35 35 35 36 37 38 39 39 39 39 39 40 40 41 42 42 42 43 44 44 45 45 45 45 45 46 47 47 48 48

GEFSSE_500_meanwind_198.txt.gz
Wind_Speed
18 18 18 17 17 17 16 16 16 16 15 15 15 15 15 15 15 15 15 14 14 14 14 14 14 14 13 13 13 13 13 13 13 13 13 13 13 13 13 12 12 12 12
20 19 19 19 18 18 18 18 18 18 17 17 17 17 17 17 17 17 17 16 16 16 16 16 16 16 16 16 15 15 16 15 15 15 15 14 14 14 15 14 14 14 14
21 21 20 20 20 19 19 19 19 19 19 19 19 19 19 19 19 19 19 18 18 18 18 18 18 18 18 18 18 18 18 18 18 17 17 17 17 17 17 17 17 17 16
22 22 22 21 21 21 20 20 20 20 20 20 20 20 20 20 20 20 20 20 20 20 21 21 21 20 20 20 20 20 20 20 20 20 20 19 19 19 19 19 19 18 19
24 24 23 23 23 22 22 22 21 21 22 22 21 21 21 21 22 22 22 22 22 22 22 23 23 23 22 22 22 22 22 22 22 22 22 21 21 21 22 21 21 21 21
25 25 25 24 24 24 24 23 23 23 23 23 23 22 22 22 23 23 23 24 24 24 24 25 25 25 25 25 24 24 24 24 25 24 24 24 23 24 24 23 24 23 23
26 25 26 25 25 25 25 25 24 24 24 24 23 24 23 23 24 24 24 25 25 25 26 26 26 27 27 27 27 27 27 26 26 26 26 25 25 25 25 25 25 25 25
26 26 26 26 26 26 26 25 25 25 25 25 25 25 24 24 25 25 25 26 26 26 27 28 28 29 29 29 29 29 29 29 29 28 28 28 27 27 27 27 27 27 26
27 27 27 27 26 26 26 26 26 26 26 26 25 25 26 26 26 27 27 27 28 28 28 29 29 30 30 31 31 31 31 31 31 30 29 29 29 28 28 28 28 28 28
28 28 27 27 27 26 26 26 26 26 26 26 26 27 27 27 28 28 28 29 29 30 30 31 31 32 32 33 33 33 33 32 32 31 31 31 31 30 30 30 29 30 29
29 28 28 27 27 27 27 27 27 27 27 27 27 28 28 29 29 30 30 30 31 32 32 33 33 34 34 34 35 34 34 34 34 34 33 33 33 33 32 32 32 31 31
29 29 29 28 28 28 27 27 27 27 28 28 28 29 29 30 31 31 32 32 33 34 34 35 35 35 36 36 36 36 36 36 36 36 35 35 35 34 35 34 34 34 34
31 30 30 30 29 29 29 28 28 28 29 30 30 30 31 31 32 33 33 34 35 35 36 36 36 37 37 37 37 37 38 38 38 38 38 38 37 37 37 36 36 36 36
31 31 31 30 30 30 30 30 30 30 31 31 32 32 32 33 33 34 34 35 36 36 36 37 37 38 38 39 39 39 40 40 40 40 40 40 39 39 39 38 38 38 38
32 32 31 31 31 31 31 31 31 31 31 32 32 33 34 34 34 35 35 36 37 37 38 38 38 38 39 40 40 41 41 41 41 42 41 42 41 41 41 41 41 41 40
32 32 32 32 32 32 32 32 32 32 32 33 34 34 35 35 35 36 36 37 37 38 38 38 39 39 40 41 42 42 42 43 42 43 43 43 43 42 42 42 42 43 42
33 33 32 32 33 33 33 33 33 33 33 34 35 35 36 36 36 37 37 38 38 38 39 39 40 41 41 42 42 43 43 43 43 43 44 45 45 44 44 44 44 45 45
33 33 32 32 32 33 33 33 33 33 33 34 35 35 36 36 36 37 37 38 38 39 40 40 41 41 41 41 42 42 43 44 44 45 45 46 46 45 45 46 46 46 46
32 32 32 32 32 32 33 33 33 33 33 34 34 35 35 35 36 37 37 38 39 39 40 41 41 42 42 42 42 43 44 45 45 45 46 46 47 47 47 47 47 47 47
32 32 32 32 32 32 33 33 33 34 34 34 34 34 35 35 36 37 37 38 39 39 40 41 41 42 42 42 42 43 43 45 46 46 47 47 47 48 48 48 48 48 47
32 32 32 32 32 32 33 33 33 34 34 34 34 35 35 35 36 36 37 37 37 38 39 39 39 40 41 41 42 42 43 44 45 46 47 47 48 49 49 48 47 47 47
32 32 32 32 32 32 33 33 34 34 34 35 35 35 36 36 36 36 37 37 37 37 38 39 39 40 41 41 42 42 42 43 44 46 46 47 47 47 48 47 47 48 48
32 32 32 32 32 32 32 33 34 34 35 35 35 35 35 36 36 36 36 36 36 37 38 39 40 41 41 41 42 43 43 43 44 45 46 45 45 45 46 46 47 49 49
32 32 32 31 32 32 32 33 33 34 34 34 34 34 35 36 36 35 35 36 37 37 38 39 39 40 41 41 42 42 43 44 45 45 44 44 44 44 45 46 47 47 48
32 32 32 32 32 32 32 33 33 33 34 34 34 34 35 36 36 36 36 37 37 38 38 39 39 40 40 40 41 42 43 44 44 44 43 42 43 45 45 46 47 48 47
32 32 32 32 32 32 33 33 33 33 34 34 34 35 36 36 36 36 37 37 38 39 39 40 40 40 39 40 41 42 42 41 41 41 42 42 42 43 44 45 46 47 47

GEFSSE_500_meanwind_204.txt.gz
Wind_Speed
15 15 14 14 14 14 14 14 14 13 13 13 13 13 14 14 14 14 13 13 14 14 14 14 13 14 14 14 14 13 14 14 14 13 14 14 14 14 14 14 14 14 14
17 16 16 16 16 16 16 16 15 15 15 15 15 15 15 16 16 16 16 16 16 16 16 16 16 16 16 16 16 16 16 16 16 16 16 16 16 16 16 16 16 17 16
19 19 18 18 18 18 17 17 17 17 17 17 17 17 17 17 17 17 18 18 18 18 18 18 18 18 18 18 18 18 18 18 18 18 18 18 18 19 19 19 19 19 19
21 21 20 20 20 19 19 19 19 18 18 18 18 18 19 19 19 19 19 19 20 20 20 20 20 20 20 20 20 20 20 20 20 20 20 20 20 20 20 21 21 21 21
22 23 23 22 21 21 20 20 20 20 19 19 20 20 20 20 20 21 21 21 21 21 21 22 22 22 22 22 22 22 22 22 22 22 22 22 22 22 22 23 23 23 23
24 24 24 23 23 22 22 22 22 21 21 21 21 21 21 22 22 22 22 22 23 23 23 23 23 23 24 24 24 24 24 24 24 24 25 25 24 24 24 24 25 25 25
25 25 25 24 24 24 24 23 23 23 23 23 23 23 23 23 23 23 23 23 24 24 24 24 25 25 25 25 26 26 26 26 26 26 26 26 27 27 26 26 26 26 26
25 25 25 25 25 25 25 25 25 24 24 24 24 24 24 24 24 24 24 25 25 25 25 26 26 26 27 27 27 27 27 28 28 28 28 28 28 28 28 28 28 28 28
27 26 26 26 26 26 25 25 25 25 25 25 25 25 25 25 25 25 25 25 26 26 26 27 27 27 28 28 28 29 29 29 30 30 30 29 29 29 30 30 30 30 29
28 28 27 27 27 26 26 26 25 25 25 26 26 26 26 26 26 26 26 26 26 27 28 28 29 29 29 30 30 31 31 31 31 31 31 31 31 31 31 32 32 32 31
29 28 28 27 27 27 26 26 26 26 26 26 26 26 26 26 26 27 27 27 27 28 29 30 30 31 31 32 32 33 33 33 33 33 33 33 33 34 34 33 33 33 34
29 29 28 28 28 27 27 27 27 27 27 27 27 27 27 27 27 28 28 28 29 30 31 31 32 33 33 34 34 35 35 35 35 35 35 35 35 36 36 35 35 35 35
30 29 29 28 28 28 28 28 28 28 27 27 27 28 28 28 28 29 29 30 31 31 32 33 34 34 35 36 36 37 37 37 37 37 38 38 37 37 37 38 37 37 37
30 30 30 29 29 29 29 29 29 28 28 28 28 28 29 29 30 30 30 31 32 32 33 34 35 36 36 37 38 39 39 39 39 39 39 39 40 39 40 40 39 39 39
31 31 31 31 30 30 30 30 30 30 29 29 29 29 30 30 30 31 31 32 33 34 34 35 36 36 37 38 39 39 39 40 40 41 40 40 41 42 42 42 41 41 41
31 31 32 32 31 31 31 31 30 30 30 31 31 31 31 31 31 32 33 33 34 34 35 36 36 37 38 38 39 39 40 41 41 42 42 42 42 43 43 42 42 43 44
31 31 32 32 32 32 32 32 31 31 31 32 32 32 32 32 33 33 34 34 34 35 36 37 37 38 38 39 39 40 41 41 41 41 42 43 44 44 43 43 43 44 45
31 32 32 32 32 32 32 32 32 32 32 32 33 33 33 34 34 34 34 35 35 36 37 37 37 38 38 38 38 39 39 40 41 41 41 42 43 44 44 44 45 45 45
31 31 32 32 32 32 32 32 32 32 32 33 33 33 34 34 35 35 35 36 36 36 36 37 37 37 37 37 38 38 38 39 39 40 41 42 43 44 44 45 45 45 45
31 31 32 32 32 31 31 32 32 32 32 33 33 33 34 35 35 35 36 36 36 36 36 36 36 37 37 37 37 38 39 39 39 39 40 41 42 44 45 46 46 46 46
31 30 30 31 31 31 31 31 32 32 32 33 33 33 34 35 35 36 36 36 36 36 36 37 36 36 37 37 38 38 38 39 39 40 40 41 42 43 45 46 47 47 48
30 30 30 30 31 31 31 31 31 32 32 32 33 33 34 35 35 35 36 36 36 36 37 37 37 37 38 39 39 39 39 39 40 40 41 42 43 44 45 46 47 47 47
31 30 30 30 31 31 31 31 31 32 32 32 32 33 34 35 35 36 36 36 36 36 37 37 37 38 39 39 40 40 40 40 40 40 41 43 43 43 44 45 45 45 46
31 31 31 31 31 31 31 31 31 31 31 32 32 33 33 34 35 36 36 36 36 37 37 37 38 39 39 39 40 41 41 42 42 41 40 40 41 41 42 43 43 44 44
32 32 31 31 31 31 31 31 31 31 31 31 32 32 33 34 34 35 36 36 36 36 37 37 38 38 39 39 40 40 41 41 41 41 39 38 39 40 41 42 42 42 42
32 32 32 31 31 31 31 31 31 32 31 31 32 32 33 34 34 35 36 36 36 36 37 37 37 38 38 38 39 40 40 39 38 38 38 38 38 38 39 39 38 39 40

GEFSSE_500_meanwind_210.txt.gz
Wind_Speed
16 16 16 15 15 14 13 13 12 11 10 10 10 10 10 10 11 10 11 11 11 11 12 12 13 13 13 14 14 15 15 15 15 15 15 15 15 16 16 16 16 16 17
17 16 16 16 15 15 14 14 13 12 12 11 11 12 12 12 12 12 13 13 13 13 14 14 15 15 15 16 16 16 16 17 17 17 17 17 17 18 18 18 18 18 18
19 18 18 17 17 16 15 15 15 14 13 13 13 13 13 13 14 14 14 15 15 15 16 16 17 17 17 17 18 18 18 18 19 19 19 19 19 19 20 20 20 20 20
21 20 19 19 18 18 17 17 16 16 16 15 15 15 15 15 15 16 16 17 17 17 17 18 18 18 19 19 20 20 20 20 20 20 20 20 21 21 21 21 21 22 22
22 22 21 20 20 19 19 19 18 17 17 17 17 17 17 17 18 18 18 18 19 19 19 20 20 20 20 21 21 22 22 22 22 22 22 22 22 22 23 23 23 23 24
24 23 22 22 22 21 21 20 20 19 19 19 18 18 19 19 19 20 20 20 20 21 21 21 21 22 22 22 22 23 23 23 23 23 24 24 24 24 25 25 26 26 26
25 24 24 23 23 23 22 22 21 21 21 20 20 20 20 21 21 21 21 22 22 22 22 22 23 23 23 23 24 24 25 25 25 25 26 26 26 27 27 27 28 28 28
27 26 25 25 24 24 24 23 23 22 22 22 22 22 22 22 22 22 22 22 23 23 23 23 24 24 24 25 25 26 26 26 26 27 27 28 29 29 29 29 30 29 29
29 28 27 27 26 25 25 25 24 24 24 23 23 23 23 23 23 23 23 24 24 24 24 24 24 25 25 26 27 27 28 28 28 28 29 30 31 31 32 32 31 31 31
30 29 29 28 27 26 26 25 25 24 24 24 24 24 24 24 24 24 25 24 24 24 25 25 25 25 26 27 28 28 29 29 29 30 31 32 33 33 34 33 33 32 32
31 30 30 29 29 27 26 26 25 25 25 25 25 25 25 25 25 25 25 25 25 25 26 26 26 27 28 29 29 30 30 31 31 32 33 34 34 35 35 35 35 34 34
32 31 30 30 29 28 28 27 27 26 26 26 26 25 25 25 25 26 26 26 26 27 27 28 28 29 29 30 31 31 32 33 34 34 35 35 36 36 37 37 37 37 36
32 31 30 30 29 29 28 28 28 28 27 27 27 27 26 27 27 27 27 27 28 28 29 30 30 31 31 32 32 33 34 35 35 36 36 37 37 37 37 37 38 38 38
32 31 30 30 30 30 30 29 29 29 28 28 28 28 27 27 27 28 28 29 30 30 30 31 31 32 33 33 34 35 36 37 37 38 38 38 38 38 38 39 39 39 39
32 32 31 31 31 31 30 30 30 29 29 29 28 28 28 28 28 29 29 30 30 31 31 32 33 33 34 35 35 36 37 38 39 39 39 39 39 39 39 39 39 40 40
33 32 32 32 32 31 31 31 31 30 30 30 29 29 29 29 29 29 30 30 30 31 32 33 33 34 35 36 36 37 38 39 39 39 38 38 39 39 39 39 40 40 41
33 33 33 33 33 32 32 32 32 32 31 31 31 31 30 30 30 30 30 31 32 32 33 34 34 35 36 37 37 38 38 38 39 38 38 39 39 39 39 40 40 42 42
34 33 34 33 33 33 33 33 33 33 32 32 31 31 31 31 31 31 31 32 33 33 34 34 35 36 36 37 37 37 37 37 38 38 38 38 39 39 39 40 41 42 42
34 34 34 34 34 33 33 33 33 33 33 32 32 31 32 32 32 32 32 33 34 34 34 34 35 35 36 36 36 36 37 37 38 38 38 39 39 39 40 40 41 41 42
35 34 34 34 34 33 33 33 33 33 33 32 32 32 32 32 32 33 33 34 34 34 34 34 35 36 36 36 36 36 36 37 38 39 39 39 40 40 40 40 40 41 42
35 34 34 33 33 33 33 32 32 32 32 32 32 32 32 32 33 33 33 34 34 34 35 35 36 36 36 36 36 36 36 38 39 39 39 40 40 40 40 41 41 42 42
34 34 34 33 33 33 32 32 32 32 32 32 32 32 32 33 33 33 34 34 34 35 35 36 36 36 36 36 36 36 37 38 39 39 39 40 40 40 40 41 41 41 42
35 34 33 33 33 33 32 32 32 31 31 31 31 31 32 33 33 33 34 34 34 35 35 35 35 35 36 36 36 37 37 37 37 37 38 39 39 40 40 40 40 40 40
35 34 33 33 33 33 32 32 31 31 31 31 31 32 32 33 33 33 33 34 34 34 34 35 35 35 35 36 37 37 37 37 37 36 36 37 38 38 39 39 39 39 39
35 34 34 33 33 32 32 32 32 31 32 32 32 32 33 33 33 33 33 34 34 34 35 34 34 34 35 36 36 36 36 36 37 36 35 35 36 37 38 38 38 38 38
36 35 34 33 33 33 32 32 32 32 32 32 32 33 33 33 33 33 34 34 34 34 34 34 35 35 35 35 35 35 36 36 36 37 36 35 35 35 36 37 37 37 37

GEFSSE_500_meanwind_216.txt.gz
Wind_Speed
17 16 16 14 13 13 12 12 11 11 10 9 9 9 9 9 9 8 8 8 8 8 9 9 10 10 11 11 12 12 12 13 13 14 14 14 14 15 15 15 15 16 16
18 17 17 16 15 15 14 14 13 12 12 11 11 11 11 10 10 10 10 10 10 11 11 11 12 12 13 13 14 14 14 15 15 15 16 16 16 16 16 17 17 17 18
19 19 18 18 17 17 16 16 15 14 14 13 13 13 12 12 12 12 12 12 12 13 13 13 13 14 14 15 15 16 16 16 17 17 17 17 17 18 18 18 18 19 19
20 20 19 19 18 18 17 17 16 16 15 15 15 14 14 14 14 14 14 14 14 15 15 15 16 16 16 17 17 17 17 17 18 18 18 19 19 20 20 20 21 21 21
22 21 21 20 19 19 18 18 18 17 17 17 17 16 16 16 16 16 16 16 17 17 17 17 18 18 18 19 19 19 19 19 19 20 20 20 21 21 22 22 23 23 23
23 23 22 21 21 20 20 19 19 19 19 18 18 18 18 18 18 18 18 18 19 19 19 19 19 20 20 20 20 20 20 20 21 21 21 22 23 23 24 24 25 25 25
25 24 23 23 22 22 21 21 20 20 20 20 20 20 20 20 20 20 20 20 20 20 21 21 21 21 21 21 21 21 22 22 22 23 23 24 24 25 25 26 26 27 27
27 26 25 24 24 23 23 22 22 22 21 21 21 21 21 21 21 21 21 21 22 22 22 22 22 22 23 23 23 23 23 23 24 24 25 25 26 26 27 28 28 28 28
28 27 27 26 25 25 24 24 23 23 22 22 22 22 22 22 22 22 22 23 23 23 23 23 23 23 24 24 24 25 25 26 26 27 27 27 28 28 29 29 29 30 30
30 29 28 27 27 26 26 25 24 24 24 23 23 23 23 23 23 23 23 24 24 24 24 24 24 24 25 25 26 26 27 28 28 28 28 29 29 30 31 31 31 31 32
31 30 29 29 28 28 27 27 26 26 25 25 24 24 24 24 24 24 24 24 24 24 24 24 25 26 26 27 27 28 29 29 29 29 30 30 31 32 32 33 33 34 34
32 32 31 30 30 29 29 28 27 27 26 26 26 25 25 25 26 26 25 25 25 26 26 26 26 27 28 28 29 30 30 31 31 31 32 32 33 33 34 34 35 36 36
33 33 32 31 31 30 30 29 29 28 27 27 27 27 27 27 27 27 26 26 26 27 27 27 28 29 29 30 31 31 31 32 32 32 33 34 34 34 35 36 36 37 37
34 34 33 32 32 31 31 30 30 29 28 28 28 28 28 28 28 27 27 27 28 28 28 29 30 31 31 32 32 32 32 33 33 34 34 35 35 36 37 37 37 38 38
35 34 34 33 32 32 31 31 30 29 29 29 29 29 29 29 29 29 29 29 29 29 30 31 31 32 32 32 32 33 33 34 35 35 36 36 36 37 37 37 38 38 38
36 35 34 34 33 33 32 32 31 30 30 30 30 30 30 31 30 30 30 30 30 31 31 31 31 32 32 32 33 34 34 35 35 35 36 37 37 37 37 37 37 38 38
36 35 35 34 33 33 33 32 32 31 31 31 31 31 31 31 31 31 31 31 31 31 31 32 32 32 32 33 34 34 34 35 35 36 37 36 36 37 37 36 36 37 37
36 36 35 34 34 34 33 33 33 32 32 32 32 32 32 32 32 32 32 32 32 32 32 33 33 33 33 34 34 35 35 36 36 37 37 37 37 36 36 36 36 36 37
37 37 36 36 35 35 34 34 33 33 33 32 32 32 32 32 32 32 33 33 33 33 33 33 33 34 34 35 35 35 36 36 36 37 37 37 37 36 35 36 36 37 38
38 37 37 36 36 36 35 35 34 33 33 32 32 32 32 32 33 33 33 33 32 33 33 34 34 34 35 35 35 36 36 36 36 36 36 36 36 36 36 37 37 38 38
38 37 37 37 36 36 35 35 35 34 34 33 33 33 32 32 33 33 33 33 32 33 33 33 34 34 35 35 35 35 35 35 36 36 36 36 36 37 37 37 38 38 38
38 38 37 37 36 36 35 35 35 35 34 34 34 33 33 33 33 32 31 32 33 33 33 34 34 35 35 35 35 35 34 34 35 36 35 36 36 37 38 38 38 38 38
38 38 37 37 36 36 35 35 35 35 35 34 34 34 34 34 34 33 33 32 32 33 34 34 34 34 34 34 34 34 34 33 33 34 34 35 35 36 37 38 38 38 38
39 38 37 37 37 36 36 35 35 34 34 34 34 34 34 33 33 33 33 34 33 33 34 33 33 32 32 33 33 33 33 33 33 32 33 34 35 36 37 37 37 38 38
39 38 38 37 37 37 36 35 35 35 34 34 33 33 33 33 33 34 34 34 34 34 33 32 32 32 32 32 32 32 32 33 33 33 33 33 34 35 36 37 37 37 37
40 39 39 38 37 37 36 35 35 35 34 34 34 33 32 33 33 33 33 34 34 34 33 32 32 33 33 33 33 33 33 33 33 34 34 33 34 35 36 36 37 36 36